Location: Unspecified
(48.8656°N, 0.0000°E)
Time: 02:46:10
(UTC+00:00)

Transit 2A Rocket - Pass Details

Date: 23 June 2019
Orbit: 588 x 915 km, 66.7° (Epoch: 23 July)

Event Time Altitude Azimuth Distance (km) Brightness Sun altitude
Rises 08:06:25 0° 150° (SSE) 3,537 8.9 37.7°
Reaches altitude 10° 08:10:55 10° 120° (ESE) 2,597 8.8 38.4°
Maximum altitude 08:12:48 12° 101° (E) 2,479 9.0 38.7°
Drops below altitude 10° 08:14:41 10° 83° (E) 2,579 8.9 39.0°
Sets 08:19:05 0° 52° (NE) 3,477 8.9 39.7°
